Weather in Ozdere

Turkey     38°00′54″N   27°07′43″E
temp.,
°C
wind,
m/s
gust,
m/s
humid.,
%
clouds,
%
prec.,
mm/h
press.,
hPa
HPBL,
m
28 september, tue
tue2800:00+18nne32510 0.0 101231
03:00+16nne33600 0.0 101344
06:00+15nne33700 0.0 101256
09:00+19nne34550 0.0 1013248
12:00+27nne35290 0.0 1013965
15:00+30nnw35235 0.0 10111538
18:00+29n45240 0.0 10111142
21:00+21nne334320 0.0 101345
29 september, wed
wed2900:00+18nne335896 0.0 101348
03:00+16nne336970 0.0 101458
06:00+15nne3472100 0.0 1014116
09:00+18nne466173 0.0 1014380
12:00+25nne45351 0.0 10141025
15:00+28n45282 0.0 10121546
18:00+26n67310 0.0 10121210
21:00+18ne49540 0.0 1014285
30 september, thu
thu3000:00+15nne466515 0.0 1015156
03:00+13nne467491 0.0 1015164
06:00+12nne458520 0.0 1015136
09:00+16nne47655 0.0 1016512
12:00+23nne67370 0.0 10151214
15:00+26nne67281 0.0 10131573
18:00+25n69250 0.0 10121601
21:00+18nne612480 0.0 1015595
1 october, fri
fri100:00+14nne4566100 0.0 1016121
03:00+13nne457295 0.0 1016128
06:00+11nne458444 0.0 1016114
09:00+15nne47625 0.0 1016377
12:00+23nne56284 0.0 10151011
15:00+27nne56224 0.0 10141462
18:00+26n57220 0.0 1013878
21:00+17nne34420 0.0 101485
2 october, sat
sat200:00+14nne34690 0.0 101578
03:00+12nne34785 0.0 101580
06:00+11nne348191 0.0 101578
09:00+15nne346098 0.0 1015235
12:00+24nne34295 0.0 1014885
15:00+27wnw22260 0.0 10121445
18:00+24wsw12375 0.0 1012285
21:00+18ne33525 0.0 101438